Home   Weather   Ulaanbaatar   Past weeks
Flag for Mongolia

Past Weather in Ulaanbaatar, Mongolia — Yesterday and Last 2 Weeks

Now
63 °F

Scattered clouds.


Feels Like: 63 °F
Forecast: 76 / 53 °F
Wind: 13 mph from East

Location: Ulan-Bator

Current Time: Jul 19, 2019 at 8:26:02 pm

Latest Report: Jul 19, 2019 at 7:30 pm


Visibility: N/A

Pressure: 29.68 "Hg (25.47 "Hg at 1298m altitude)

Humidity: 73%

Dew Point: 54 °F

Location of UlaanbaatarLocation

Past Weather in Ulaanbaatar — Graph

°F

Ulaanbaatar Temperature Yesterday

Maximum temperature yesterday: 73 °F (at 12:00 am)
Minimum temperature yesterday: 63 °F (at 5:30 am)
Average temperature yesterday: 69 °F

High & Low Weather Summary for the Past Weeks

 TemperatureHumidityPressure
High88 °F (Jul 14, 3:00 pm)94% (Jul 8, 3:30 am)29.98 "Hg (Jul 8, 3:30 am)
Low43 °F (Jul 6, 4:30 am)16% (Jul 6, 4:30 pm)29.65 "Hg (Jul 15, 5:30 am)
Average70 °F49%29.84 "Hg
* Reported Jul 4 7:00 pm — Jul 19 7:30 pm, Ulaanbaatar. Weather by CustomWeather, © 2019

Note: Actual official high and low records may vary slightly from our data, if they occured in-between our weather recording intervals... More about our weather records

Advertising

Ulaanbaatar Weather History for the Previous 24 Hours

Scroll right to see more
 ConditionsComfort  
Time TempWeatherWind HumidityBarometerVisibility
7:30 pm
Fri, Jul 19
63 °FScattered clouds.13 mph73%29.68 "HgN/A
7:00 pm63 °FSprinkles. Scattered clouds.1 mph83%29.74 "HgN/A
6:30 pm66 °FScattered clouds.15 mph64%29.77 "HgN/A
6:00 pm72 °FScattered clouds.13 mph53%29.74 "HgN/A
5:30 pm73 °FScattered clouds.8 mph50%29.71 "HgN/A
5:00 pm73 °FPassing clouds.6 mph50%29.71 "HgN/A
4:30 pm72 °FScattered clouds.6 mph57%29.71 "HgN/A
4:00 pm70 °FScattered clouds.6 mph60%29.71 "HgN/A
3:30 pm70 °FScattered clouds.8 mph57%29.71 "HgN/A
3:00 pm68 °FScattered clouds.10 mph60%29.71 "HgN/A
2:30 pm68 °FScattered clouds.8 mph60%29.71 "HgN/A
2:00 pm68 °FScattered clouds.10 mph64%29.74 "HgN/A
1:30 pm66 °FScattered clouds.8 mph73%29.74 "HgN/A
1:00 pm64 °FLight rain. Partly sunny.8 mph78%29.74 "HgN/A
12:30 pm64 °FLight rain. Partly sunny.10 mph78%29.74 "HgN/A
12:00 pm63 °FLight rain. Partly sunny.8 mph83%29.74 "HgN/A
11:30 am63 °FLight rain. Partly sunny.6 mph83%29.74 "HgN/A
11:00 am63 °FLight rain. Partly sunny.6 mph83%29.74 "HgN/A
10:30 am61 °FLight rain. Partly sunny.1 mph88%29.74 "HgN/A
10:00 am61 °FLight rain. Partly sunny.No wind88%29.74 "HgN/A
9:30 am61 °FLight rain. Partly sunny.1 mph88%29.77 "HgN/A
9:00 am59 °FLight rain. Partly sunny.1 mph94%29.74 "HgN/A
8:30 am59 °FRain. Partly sunny.1 mph94%29.74 "Hg4 mi
8:00 am59 °FRain. Partly sunny.1 mph94%29.74 "Hg4 mi
7:30 am59 °FRain. Partly sunny.1 mph94%29.74 "Hg5 mi
7:00 am59 °FRain. Partly sunny.1 mph94%29.74 "Hg5 mi
6:30 am59 °FRain. Partly sunny.No wind94%29.74 "Hg5 mi
6:00 am59 °FSprinkles. Passing clouds.1 mph94%29.77 "HgN/A
5:30 am61 °FSprinkles. Passing clouds.1 mph88%29.74 "HgN/A
5:00 am61 °FSprinkles. Passing clouds.3 mph88%29.77 "HgN/A
4:30 am59 °FSprinkles. Passing clouds.1 mph94%29.77 "HgN/A
4:00 am61 °FSprinkles. Passing clouds.6 mph88%29.77 "HgN/A
3:00 am64 °FPassing clouds.3 mph73%29.77 "HgN/A
2:00 am63 °FPassing clouds.1 mph77%29.77 "HgN/A
1:30 am64 °FPassing clouds.8 mph73%29.77 "HgN/A
1:00 am64 °FPassing clouds.3 mph73%29.77 "HgN/A
12:30 am64 °FPassing clouds.3 mph73%29.77 "HgN/A
12:00 am66 °FPassing clouds.1 mph68%29.77 "HgN/A
11:30 pm
Thu, Jul 18
64 °FPassing clouds.3 mph73%29.80 "HgN/A
11:00 pm64 °FPassing clouds.6 mph73%29.80 "HgN/A
10:30 pm66 °FPassing clouds.8 mph68%29.80 "HgN/A
10:00 pm64 °FPassing clouds.6 mph68%29.83 "HgN/A
9:30 pm64 °FPartly sunny.6 mph68%29.83 "HgN/A
9:00 pm68 °FPartly sunny.3 mph60%29.80 "HgN/A
8:30 pm68 °FPartly sunny.8 mph60%29.80 "HgN/A
8:00 pm70 °FPartly sunny.8 mph57%29.83 "HgN/A
Weather by CustomWeather, © 2019

See weather overview